AG4OX Weather Reports


Display with metric or nautical units.
time (UTC)temp
F
wind
direction
speed
MPH
gust
MPH
rain 1hr
in
rain 24hr
in
rain mn
in
humidity
%
barometer
mb
20260905175006 91 231 3.0 12.0 0.00 0.00 0.00 64 1011.3
20260905174005 92 248 4.0 7.0 0.00 0.00 0.00 64 1011.3
20260905172006 90 285 3.0 7.0 0.00 0.00 0.00 65 1011.7
20260905170005 89 262 3.0 9.0 0.00 0.00 0.00 66 1012.0
20260905164007 90 213 3.0 10.0 0.00 0.00 0.00 66 1012.2
20260905163005 90 261 3.0 7.0 0.00 0.00 0.00 68 1012.3
20260905162006 90 244 2.0 12.0 0.00 0.00 0.00 66 1012.5
20260905161006 89 222 4.0 9.0 0.00 0.00 0.00 68 1012.6
20260905160006 89 251 2.0 7.0 0.00 0.00 0.00 68 1012.9
20260905155006 89 218 3.0 6.0 0.00 0.00 0.00 68 1013.2
20260905153006 88 239 4.0 12.0 0.00 0.00 0.00 71 1012.9
20260905152005 88 239 4.0 10.0 0.00 0.00 0.00 71 1013.1
20260905151006 87 224 3.0 9.0 0.00 0.00 0.00 70 1013.1
20260905150005 87 248 5.0 9.0 0.00 0.00 0.00 72 1013.0
20260905145005 86 199 4.0 12.0 0.00 0.00 0.00 73 1013.0
20260905144006 86 230 6.0 12.0 0.00 0.00 0.00 72 1013.2
20260905142006 85 238 4.0 10.0 0.00 0.00 0.00 76 1013.2
20260905141006 85 223 6.0 10.0 0.00 0.00 0.00 76 1013.3
20260905140005 85 204 3.0 6.0 0.00 0.00 0.00 76 1013.3
20260905134005 84 234 1.0 9.0 0.00 0.00 0.00 82 1013.2
20260905133006 82 223 2.0 6.0 0.00 0.00 0.00 82 1013.2
20260905132006 81 251 2.0 3.0 0.00 0.00 0.00 83 1013.1
20260905130005 80 220 2.0 3.0 0.00 0.00 0.00 81 1013.1
20260905125005 80 245 0.0 3.0 0.00 0.00 0.00 80 1013.1
20260905124007 79 239 1.0 3.0 0.00 0.00 0.00 78 1013.1
20260905123005 78 186 0.0 2.0 0.00 0.00 0.00 73 1013.1
20260905122007 78 227 1.0 2.0 0.00 0.00 0.00 68 1013.1
20260905121006 77 155 0.0 0.0 0.00 0.00 0.00 67 1013.0
20260905120005 76 155 0.0 1.0 0.00 0.00 0.00 69 1013.0
20260905115006 76 155 0.0 0.0 0.00 0.00 0.00 69 1012.9
20260905113005 75 155 0.0 1.0 0.00 0.00 0.00 71 1012.7
20260905112005 75 155 0.0 0.0 0.00 0.00 0.00 71 1012.5
20260905111007 75 155 0.0 1.0 0.00 0.00 0.00 71 1012.4
20260905110005 76 155 1.0 1.0 0.00 0.00 0.00 71 1012.3
20260905105005 75 155 0.0 1.0 0.00 0.00 0.00 71 1012.2
20260905104005 75 155 0.0 1.0 0.00 0.00 0.00 73 1012.2
20260905103007 75 155 0.0 0.0 0.00 0.00 0.00 73 1012.0
20260905102005 75 155 0.0 1.0 0.00 0.00 0.00 73 1012.0
20260905101006 76 155 0.0 1.0 0.00 0.00 0.00 73 1011.9
20260905100005 76 155 0.0 1.0 0.00 0.00 0.00 73 1011.9
20260905094007 76 155 1.0 1.0 0.00 0.00 0.00 74 1012.2
20260905093005 76 155 0.0 1.0 0.00 0.00 0.00 75 1012.0
20260905092005 76 155 0.0 0.0 0.00 0.00 0.00 74 1012.0
20260905091005 76 155 0.0 1.0 0.00 0.00 0.00 76 1012.0
20260905085007 76 155 1.0 2.0 0.00 0.00 0.00 76 1011.9
20260905084006 76 213 0.0 0.0 0.00 0.00 0.00 78 1012.0
20260905083006 76 213 0.0 1.0 0.00 0.00 0.00 77 1012.0
20260905081006 77 213 0.0 0.0 0.00 0.00 0.00 78 1011.9
20260905080005 77 213 0.0 0.0 0.00 0.00 0.00 79 1012.1
20260905075006 77 213 0.0 1.0 0.00 0.00 0.00 79 1012.0
20260905074007 77 213 0.0 1.0 0.00 0.00 0.00 79 1012.0
20260905073005 77 213 0.0 1.0 0.00 0.00 0.00 79 1011.9
20260905072005 77 223 0.0 1.0 0.00 0.00 0.00 79 1011.9
20260905071006 77 223 1.0 2.0 0.00 0.00 0.00 78 1011.9
20260905070005 77 161 0.0 2.0 0.00 0.00 0.00 79 1012.1
20260905065006 77 213 0.0 1.0 0.00 0.00 0.00 79 1012.1
20260905064006 77 215 0.0 1.0 0.00 0.00 0.00 79 1012.2
20260905063006 77 215 0.0 1.0 0.00 0.00 0.00 79 1012.3
20260905061005 78 215 1.0 1.0 0.00 0.00 0.00 77 1012.5
20260905055007 78 88 0.0 1.0 0.00 0.00 0.00 78 1012.7
20260905054006 78 88 0.0 2.0 0.00 0.00 0.00 77 1012.9
20260905052006 78 182 0.0 1.0 0.00 0.00 0.00 78 1013.1
20260905051005 78 182 1.0 2.0 0.00 0.00 0.00 77 1013.3
20260905050005 78 199 0.0 1.0 0.00 0.00 0.00 80 1013.4
20260905045006 78 199 0.0 0.0 0.00 0.00 0.00 79 1013.4
20260905043005 78 199 0.0 1.0 0.00 0.00 0.00 80 1013.7
20260905042006 79 199 0.0 1.0 0.00 0.00 0.00 79 1013.7
20260905041007 79 199 1.0 2.0 0.00 0.00 0.00 80 1013.8
20260905040006 79 112 0.0 1.0 0.00 0.00 0.00 80 1013.7
20260905035005 79 112 1.0 1.0 0.00 0.00 0.00 80 1013.7
20260905033007 78 112 0.0 0.0 0.00 0.00 0.00 82 1013.8
20260905032007 78 112 0.0 0.0 0.00 0.00 0.00 82 1013.8
20260905031007 79 112 0.0 0.0 0.00 0.00 0.00 82 1013.9
20260905030005 79 112 0.0 0.0 0.00 0.00 0.00 82 1013.8
20260905025007 79 112 0.0 1.0 0.00 0.00 0.00 83 1013.8
20260905024005 79 112 0.0 0.0 0.00 0.00 0.00 83 1013.6
20260905023005 79 112 0.0 1.0 0.00 0.00 0.00 83 1013.7
20260905022006 79 112 0.0 1.0 0.00 0.00 0.00 83 1013.7
20260905021005 79 112 0.0 0.0 0.00 0.00 0.00 84 1013.6
20260905020004 80 112 0.0 1.0 0.00 0.00 0.00 84 1013.5
20260905015005 80 112 0.0 2.0 0.00 0.00 0.00 84 1013.5
20260905014006 80 112 1.0 2.0 0.00 0.00 0.00 84 1013.5
20260905013006 80 232 1.0 1.0 0.00 0.00 0.00 84 1013.4
20260905010005 81 198 0.0 1.0 0.00 0.00 0.00 82 1013.4
20260905005005 81 198 0.0 1.0 0.00 0.00 0.00 81 1013.2
20260905004005 82 213 0.0 2.0 0.00 0.00 0.00 81 1013.1
20260905003006 82 175 1.0 3.0 0.00 0.00 0.00 80 1013.2
20260905002007 83 111 0.0 7.0 0.00 0.00 0.00 80 1013.0
20260905001005 83 154 1.0 2.0 0.00 0.00 0.00 83 1012.9
20260905000006 83 129 0.0 1.0 0.00 0.00 0.00 83 1013.0
20260904235007 84 129 0.0 2.0 0.00 0.00 0.00 83 1013.0
20260904234005 84 105 0.0 2.0 0.00 0.00 0.00 82 1012.8
20260904233006 84 105 1.0 2.0 0.00 0.00 0.00 82 1012.8
20260904232005 85 105 0.0 2.0 0.00 0.00 0.00 81 1012.7
20260904231006 85 105 0.0 1.0 0.00 0.00 0.00 81 1012.3
20260904230005 85 105 1.0 2.0 0.00 0.00 0.00 80 1012.4
20260904225007 86 136 0.0 1.0 0.00 0.00 0.00 78 1012.5
20260904224007 86 136 0.0 3.0 0.00 0.00 0.00 78 1012.4
20260904222006 87 191 3.0 6.0 0.00 0.00 0.00 77 1012.1
20260904221006 87 163 2.0 12.0 0.00 0.00 0.00 76 1011.9
20260904220005 87 105 2.0 6.0 0.00 0.00 0.00 76 1011.6
20260904215005 87 100 3.0 7.0 0.00 0.00 0.00 76 1011.6
20260904214007 88 108 2.0 10.0 0.00 0.00 0.00 75 1011.7
20260904213006 88 106 3.0 12.0 0.00 0.00 0.00 74 1011.8
20260904205007 91 96 5.0 12.0 0.00 0.00 0.00 68 1012.1
20260904204005 92 107 3.0 7.0 0.00 0.00 0.00 64 1012.0
20260904203005 92 98 4.0 14.0 0.00 0.00 0.00 66 1012.0
20260904202007 92 101 3.0 12.0 0.00 0.00 0.00 66 1012.0
20260904201006 92 97 5.0 12.0 0.00 0.00 0.00 65 1011.9
20260904200006 91 117 2.0 10.0 0.00 0.00 0.00 68 1012.1
20260904195006 91 87 5.0 12.0 0.00 0.00 0.00 66 1012.3
20260904194005 91 81 4.0 10.0 0.00 0.00 0.00 74 1012.5
20260904193007 90 106 3.0 10.0 0.00 0.00 0.00 75 1012.5
20260904192006 90 100 5.0 13.0 0.00 0.00 0.00 72 1012.7
20260904191006 91 89 7.0 14.0 0.00 0.00 0.00 71 1012.7
20260904190005 94 119 5.0 8.0 0.00 0.00 0.00 66 1012.9
20260904185006 96 328 1.0 6.0 0.00 0.01 0.00 54 1012.7
20260904184006 95 80 1.0 6.0 0.00 0.01 0.00 57 1013.0
20260904183007 94 238 3.0 10.0 0.00 0.01 0.00 56 1013.1
20260904182008 94 214 4.0 10.0 0.00 0.02 0.00 56 1013.3
20260904181005 93 212 2.0 7.0 0.00 0.06 0.00 62 1013.3
20260904180006 94 178 3.0 7.0 0.00 0.13 0.00 60 1013.6